Location: Castillon
(43.0896°N, 0.2156°E)
Time: 16:07:23
(UTC+00:00)

Celestis-02/Orion 38 - Pass Details

Date: 16 June 2021
Orbit: 774 x 866 km, 108.0° (Epoch: 04 August)

Event Time Altitude Azimuth Distance (km) Brightness Sun altitude
Exits shadow 21:45:22 28° 149° (SSE) 1,421 5.3 -16.7°
Maximum altitude 21:48:06 85° 63° (ENE) 789 4.5 -16.9°
Drops below altitude 10° 21:53:15 10° 334° (NNW) 2,362 8.3 -17.4°
Sets 21:55:35 0° 334° (NNW) 3,307 9.5 -17.6°
